Location: �quirre
(50.4736°N, 2.2351°E)
Time: 23:35:36
(UTC+00:00)

Cosmos 2228 - Pass Details

Date: 07 August 2020
Orbit: 588 x 619 km, 82.5° (Epoch: 23 September)

Event Time Altitude Azimuth Distance (km) Brightness Sun altitude
Rises 03:31:30 0° 170° (S) 2,862 6.2 -8.4°
Reaches altitude 10° 03:33:47 10° 164° (SSE) 1,967 5.4 -8.1°
Maximum altitude 03:37:54 43° 93° (E) 873 4.3 -7.6°
Drops below altitude 10° 03:42:05 10° 22° (NNE) 1,995 6.7 -7.0°
Sets 03:44:24 0° 16° (NNE) 2,908 7.4 -6.7°
